| time (UTC) | temp F | wind direction | speed knots | gust knots | rain 1hr in | rain 24hr in | rain mn in | humidity % | barometer mb |
| 20260905144557 | 88 | 304 | 0.0 | 8.7 | 0.00 | 0.00 | 0.00 | 62 | 1013.1 |
| 20260905143053 | 87 | 254 | 0.0 | 0.9 | 0.00 | 0.00 | 0.00 | 67 | 1013.0 |
| 20260905141553 | 85 | 227 | 0.0 | 0.9 | 0.00 | 0.00 | 0.00 | 69 | 1013.1 |
| 20260905140046 | 84 | 238 | 0.0 | 0.0 | 0.00 | 0.00 | 0.00 | 71 | 1013.1 |
| 20260905134543 | 83 | 281 | 0.0 | 0.0 | 0.00 | 0.00 | 0.00 | 74 | 1012.9 |
| 20260905133042 | 82 | 257 | 0.0 | 0.0 | 0.00 | 0.00 | 0.00 | 76 | 1012.9 |
| 20260905131556 | 81 | 262 | 0.0 | 0.0 | 0.00 | 0.00 | 0.00 | 77 | 1012.8 |
| 20260905130039 | 81 | 261 | 0.0 | 0.0 | 0.00 | 0.00 | 0.00 | 78 | 1012.7 |
| 20260905124547 | 80 | 261 | 0.0 | 0.0 | 0.00 | 0.00 | 0.00 | 79 | 1012.6 |
| 20260905123045 | 80 | 261 | 0.0 | 0.0 | 0.00 | 0.00 | 0.00 | 79 | 1012.4 |
| 20260905121537 | 79 | 261 | 0.0 | 0.0 | 0.00 | 0.00 | 0.00 | 79 | 1012.3 |
| 20260905120036 | 79 | 261 | 0.0 | 0.0 | 0.00 | 0.00 | 0.00 | 79 | 1012.2 |
| 20260905114541 | 79 | 261 | 0.0 | 0.0 | 0.00 | 0.00 | 0.00 | 79 | 1012.1 |
| 20260905113040 | 79 | 261 | 0.0 | 0.0 | 0.00 | 0.00 | 0.00 | 79 | 1012.0 |
| 20260905111545 | 80 | 261 | 0.0 | 0.0 | 0.00 | 0.00 | 0.00 | 79 | 1011.9 |
| 20260905110032 | 80 | 261 | 0.0 | 0.0 | 0.00 | 0.00 | 0.00 | 78 | 1011.8 |
| 20260905104531 | 80 | 261 | 0.0 | 0.0 | 0.00 | 0.00 | 0.00 | 77 | 1011.8 |
| 20260905103033 | 80 | 261 | 0.0 | 0.0 | 0.00 | 0.00 | 0.00 | 78 | 1011.9 |
| 20260905101538 | 80 | 261 | 0.0 | 0.0 | 0.00 | 0.00 | 0.00 | 78 | 1012.0 |
| 20260905100028 | 80 | 261 | 0.0 | 0.0 | 0.00 | 0.00 | 0.00 | 77 | 1011.9 |
| 20260905094527 | 80 | 261 | 0.0 | 0.0 | 0.00 | 0.00 | 0.00 | 77 | 1011.9 |
| 20260905093026 | 81 | 261 | 0.0 | 0.0 | 0.00 | 0.00 | 0.00 | 76 | 1011.9 |
| 20260905091524 | 81 | 261 | 0.0 | 0.0 | 0.00 | 0.00 | 0.00 | 76 | 1011.9 |
| 20260905090123 | 81 | 261 | 0.0 | 0.0 | 0.00 | 0.00 | 0.00 | 77 | 1012.0 |
| 20260905084550 | 81 | 261 | 0.0 | 0.0 | 0.00 | 0.00 | 0.00 | 77 | 1011.9 |
| 20260905083022 | 81 | 261 | 0.0 | 0.0 | 0.00 | 0.00 | 0.00 | 76 | 1012.0 |
| 20260905081517 | 81 | 261 | 0.0 | 0.0 | 0.00 | 0.00 | 0.00 | 76 | 1012.2 |
| 20260905080016 | 82 | 261 | 0.0 | 0.0 | 0.00 | 0.00 | 0.00 | 75 | 1012.3 |
| 20260905074515 | 82 | 261 | 0.0 | 0.0 | 0.00 | 0.00 | 0.00 | 75 | 1012.3 |
| 20260905073017 | 82 | 261 | 0.0 | 0.0 | 0.00 | 0.00 | 0.00 | 74 | 1012.2 |
| 20260905071514 | 82 | 261 | 0.0 | 0.0 | 0.00 | 0.00 | 0.00 | 75 | 1012.3 |
| 20260905070012 | 82 | 261 | 0.0 | 0.0 | 0.00 | 0.00 | 0.00 | 74 | 1012.4 |
| 20260905064511 | 82 | 261 | 0.0 | 0.0 | 0.00 | 0.00 | 0.00 | 74 | 1012.3 |
| 20260905063010 | 82 | 261 | 0.0 | 0.0 | 0.00 | 0.00 | 0.00 | 74 | 1012.4 |
| 20260905061508 | 82 | 261 | 0.0 | 0.0 | 0.00 | 0.00 | 0.00 | 73 | 1012.4 |
| 20260905060007 | 83 | 261 | 0.0 | 0.0 | 0.00 | 0.00 | 0.00 | 74 | 1012.4 |
| 20260905054506 | 83 | 261 | 0.0 | 0.0 | 0.00 | 0.00 | 0.00 | 73 | 1012.4 |
| 20260905053004 | 83 | 261 | 0.0 | 0.0 | 0.00 | 0.00 | 0.00 | 72 | 1012.5 |
| 20260905051504 | 84 | 261 | 0.0 | 0.0 | 0.00 | 0.00 | 0.00 | 71 | 1012.6 |
| 20260905050101 | 84 | 261 | 0.0 | 0.0 | 0.00 | 0.00 | 0.00 | 70 | 1012.5 |
| 20260905044600 | 84 | 261 | 0.0 | 0.0 | 0.00 | 0.00 | 0.00 | 70 | 1012.4 |
| 20260905043100 | 84 | 261 | 0.0 | 0.0 | 0.00 | 0.00 | 0.00 | 70 | 1012.4 |
| 20260905041559 | 84 | 261 | 0.0 | 0.0 | 0.00 | 0.00 | 0.00 | 71 | 1012.4 |
| 20260905040058 | 85 | 261 | 0.0 | 0.0 | 0.00 | 0.00 | 0.00 | 71 | 1012.4 |
| 20260905034558 | 85 | 261 | 0.0 | 0.0 | 0.00 | 0.00 | 0.00 | 69 | 1012.4 |
| 20260905033100 | 86 | 261 | 0.0 | 0.0 | 0.00 | 0.00 | 0.00 | 67 | 1012.5 |
| 20260905031600 | 87 | 261 | 0.0 | 0.0 | 0.00 | 0.00 | 0.00 | 64 | 1012.4 |
| 20260905030104 | 87 | 261 | 0.0 | 0.0 | 0.00 | 0.00 | 0.00 | 63 | 1012.5 |
| 20260905024630 | 87 | 261 | 0.0 | 0.0 | 0.00 | 0.00 | 0.00 | 63 | 1012.4 |
| 20260905023059 | 88 | 261 | 0.0 | 0.0 | 0.00 | 0.00 | 0.00 | 62 | 1012.2 |
| 20260905021555 | 88 | 261 | 0.0 | 0.0 | 0.00 | 0.00 | 0.00 | 61 | 1012.2 |
| 20260905020055 | 89 | 261 | 0.0 | 0.0 | 0.00 | 0.00 | 0.00 | 61 | 1012.0 |
| 20260905014557 | 89 | 261 | 0.0 | 0.0 | 0.00 | 0.00 | 0.00 | 58 | 1011.8 |
| 20260905013055 | 90 | 261 | 0.0 | 0.0 | 0.00 | 0.00 | 0.00 | 56 | 1011.7 |
| 20260905011559 | 91 | 261 | 0.0 | 0.0 | 0.00 | 0.00 | 0.00 | 55 | 1011.5 |
| 20260905010054 | 92 | 261 | 0.0 | 0.0 | 0.00 | 0.00 | 0.00 | 54 | 1011.3 |
| 20260905004559 | 93 | 261 | 0.0 | 0.0 | 0.00 | 0.00 | 0.00 | 51 | 1011.4 |
| 20260905003052 | 95 | 261 | 0.0 | 0.0 | 0.00 | 0.00 | 0.00 | 50 | 1011.4 |
| 20260905001552 | 96 | 261 | 0.0 | 0.0 | 0.00 | 0.00 | 0.00 | 47 | 1011.3 |
| 20260905000051 | 96 | 261 | 0.0 | 0.0 | 0.00 | 0.00 | 0.00 | 46 | 1011.3 |
| 20260904234552 | 97 | 261 | 0.0 | 0.0 | 0.00 | 0.00 | 0.00 | 45 | 1011.2 |
| 20260904233101 | 97 | 261 | 0.0 | 0.0 | 0.00 | 0.00 | 0.00 | 45 | 1011.2 |
| 20260904231551 | 97 | 257 | 0.0 | 0.0 | 0.00 | 0.00 | 0.00 | 45 | 1011.0 |
| 20260904230049 | 97 | 232 | 0.0 | 0.0 | 0.00 | 0.00 | 0.00 | 45 | 1011.1 |
| 20260904224548 | 98 | 229 | 0.0 | 0.0 | 0.00 | 0.00 | 0.00 | 42 | 1011.1 |
| 20260904223047 | 100 | 203 | 0.0 | 0.9 | 0.00 | 0.00 | 0.00 | 41 | 1011.1 |
| 20260904221548 | 100 | 216 | 0.0 | 2.6 | 0.00 | 0.00 | 0.00 | 40 | 1011.2 |
| 20260904220044 | 100 | 286 | 0.0 | 0.9 | 0.00 | 0.00 | 0.00 | 42 | 1011.3 |
| 20260904214547 | 99 | 238 | 0.0 | 2.6 | 0.00 | 0.00 | 0.00 | 41 | 1011.5 |
| 20260904213041 | 99 | 251 | 0.0 | 2.6 | 0.00 | 0.00 | 0.00 | 41 | 1011.7 |
| 20260904211539 | 99 | 216 | 0.0 | 0.9 | 0.00 | 0.00 | 0.00 | 41 | 1011.8 |
| 20260904210042 | 100 | 313 | 0.0 | 2.6 | 0.00 | 0.00 | 0.00 | 40 | 1012.0 |
| 20260904204535 | 99 | 172 | 0.0 | 0.9 | 0.00 | 0.00 | 0.00 | 39 | 1012.2 |
| 20260904203034 | 99 | 202 | 0.0 | 3.5 | 0.00 | 0.00 | 0.00 | 39 | 1012.5 |
| 20260904201531 | 99 | 294 | 0.0 | 3.5 | 0.00 | 0.00 | 0.00 | 42 | 1012.6 |
| 20260904200031 | 98 | 237 | 0.0 | 2.6 | 0.00 | 0.00 | 0.00 | 44 | 1012.9 |
| 20260904194527 | 98 | 241 | 0.0 | 5.2 | 0.00 | 0.00 | 0.00 | 44 | 1013.1 |
| 20260904193029 | 97 | 286 | 0.0 | 3.5 | 0.00 | 0.00 | 0.00 | 45 | 1013.3 |
| 20260904191521 | 97 | 233 | 0.0 | 1.7 | 0.00 | 0.00 | 0.00 | 45 | 1013.5 |
| 20260904190015 | 96 | 19 | 0.0 | 1.7 | 0.00 | 0.00 | 0.00 | 46 | 1013.6 |
| 20260904184521 | 95 | 243 | 0.0 | 0.9 | 0.00 | 0.00 | 0.00 | 47 | 1013.7 |
| 20260904183017 | 95 | 231 | 0.0 | 0.0 | 0.00 | 0.00 | 0.00 | 49 | 1013.7 |
| 20260904181513 | 96 | 256 | 0.0 | 1.7 | 0.00 | 0.00 | 0.00 | 47 | 1013.9 |
| 20260904180011 | 95 | 200 | 0.9 | 9.6 | 0.00 | 0.00 | 0.00 | 49 | 1013.9 |
| 20260904174510 | 95 | 225 | 0.0 | 7.8 | 0.00 | 0.00 | 0.00 | 48 | 1014.1 |
| 20260904173009 | 95 | 323 | 0.0 | 7.8 | 0.00 | 0.00 | 0.00 | 48 | 1014.3 |
| 20260904171509 | 95 | 192 | 0.0 | 7.0 | 0.00 | 0.00 | 0.00 | 48 | 1014.4 |
| 20260904170006 | 95 | 283 | 0.9 | 7.8 | 0.00 | 0.00 | 0.00 | 49 | 1014.5 |
| 20260904164504 | 94 | 239 | 0.9 | 7.8 | 0.00 | 0.00 | 0.00 | 50 | 1014.6 |
| 20260904163001 | 94 | 315 | 0.0 | 1.7 | 0.00 | 0.00 | 0.00 | 53 | 1014.7 |
| 20260904161602 | 93 | 265 | 0.0 | 2.6 | 0.00 | 0.00 | 0.00 | 53 | 1014.6 |
| 20260904160057 | 93 | 231 | 0.0 | 0.0 | 0.00 | 0.00 | 0.00 | 57 | 1014.7 |
| 20260904154553 | 91 | 303 | 0.0 | 2.6 | 0.00 | 0.00 | 0.00 | 59 | 1014.7 |
| 20260904153059 | 90 | 286 | 0.0 | 3.5 | 0.00 | 0.00 | 0.00 | 60 | 1014.7 |
| 20260904151545 | 89 | 247 | 1.7 | 7.0 | 0.00 | 0.00 | 0.00 | 61 | 1014.7 |
| 20260904150046 | 89 | 327 | 0.0 | 0.9 | 0.00 | 0.00 | 0.00 | 62 | 1014.5 |